#timestamp,LO_Frequency,Hit,StdDev 
1669518015.7,286047000.6,N
1669518035.5,286046999.8,N
1669518055.4,286046998.6,N
1669518075.2,286046998.5,N
1669518095.0,286046998.7,N
1669518095.9,286046998.7,N
1669518115.8,286046998.8,N
1669518135.6,286046999.2,N
1669518155.4,286046997.2,N
1669518175.3,286046997.3,N
1669518195.1,286046999.2,N
1669518215.8,286046997.7,N
1669518235.7,286046997.7,N
1669518255.5,286046997.7,N
1669518275.3,286046997.3,N
1669518295.2,286046997.2,N
1669518315.0,286046996.4,Y
1669518315.9,286046996.4,P
1669518335.7,286046998.0,N
1669518355.6,286046995.3,P
1669518375.4,286046997.6,N
1669518395.3,286046995.4,Y
1669518415.1,286046998.6,P
1669518416.0,286046998.6,N
1669518435.8,286047000.7,N
1669518455.7,286046998.8,N
1669518475.5,286046999.2,N
1669518495.3,286046998.6,N
1669518515.2,286047000.6,N
1669518535.9,286047001.2,N
1669518555.7,286046998.6,N
1669518575.6,286046998.5,N
1669518595.4,286047000.5,N
1669518615.2,286046999.5,N
1669518635.1,286046999.9,N
1669518636.0,286046999.9,N
1669518655.8,286047000.2,N
1669518675.6,286047002.5,N
1669518695.5,286047002.8,N
1669518715.3,286047002.5,N
1669518735.1,286047000.2,N
1669518755.9,286047000.8,N
1669518775.7,286046998.6,N
1669518795.5,286046996.6,N
1669518815.4,286047000.9,N
1669518835.2,286047000.5,N
1669518855.0,286046998.2,N
1669518855.9,286046998.2,N
1669518875.8,286046996.6,N
1669518895.6,286047000.7,N
1669518915.4,286046998.8,N
1669518935.3,286046998.5,N
1669518955.1,286047000.4,N
1669518956.0,286047000.4,N
1669518975.8,286046999.7,N
1669518995.7,286047000.9,N
1669519015.5,286047001.2,N
1669519035.3,286046998.8,N
1669519055.2,286046999.3,N
1669519075.9,286046998.4,N
1669519095.7,286046998.1,N
1669519115.6,286047002.1,N
1669519135.4,286047000.3,N
1669519155.2,286047000.9,N
1669519175.1,286047000.4,N
1669519176.0,286047000.4,N
1669519195.8,286047000.8,N
1669519215.6,286046998.3,N
1669519235.5,286046999.0,N
1669519255.3,286046998.2,N
1669519275.1,286046998.4,N
1669519295.9,286046998.2,N
1669519315.7,286046999.4,N
1669519335.5,286046996.9,N
1669519355.4,286046999.6,N
1669519375.2,286046998.7,N
1669519395.0,286046998.3,N
1669519395.9,286046998.3,N
1669519415.8,286047001.0,N
1669519435.6,286047000.3,N
1669519455.4,286047000.1,N
1669519475.3,286047002.6,N
1669519495.1,286047001.9,N
1669519515.8,286047002.8,N
1669519535.7,286047002.8,N
1669519555.5,286047000.1,N
1669519575.3,286047000.8,N
1669519595.2,286047000.6,N
1669519615.9,286047000.6,N
1669519635.7,286047002.5,N
1669519655.6,286047002.2,N
1669519675.4,286047002.3,N
1669519695.2,286047001.3,N
1669519715.1,286047003.6,N
1669519716.0,286047003.6,N
1669519735.8,286047001.5,N
1669519755.6,286047002.5,N
1669519775.5,286046999.9,N
1669519795.3,286047000.1,N
1669519815.1,286047001.3,N
1669519835.9,286047001.7,N
1669519855.7,286047001.4,N
1669519875.5,286047002.5,N
1669519895.4,286047001.3,N
1669519915.2,286047003.5,N
1669519935.0,286047001.4,N
1669519935.9,286047001.4,N
1669519955.8,286047001.9,N
1669519975.6,286047004.2,Y
1669519995.5,286047004.3,P
1669520015.3,286047002.0,N
1669520035.1,286047001.4,N
1669520055.9,286047001.6,N
1669520075.7,286047001.9,N
1669520095.5,286047002.0,N
1669520115.4,286047002.6,N
1669520135.2,286047002.2,N
1669520155.0,286047002.8,Y
1669520155.9,286047002.8,P
1669520175.8,286046999.5,N
1669520195.6,286046997.4,N
1669520215.4,286046996.7,N
1669520235.3,286046999.5,N
1669520255.1,286046998.7,N
1669520256.0,286046998.7,N
1669520275.8,286046997.2,N
1669520295.7,286046997.8,N
1669520315.5,286046996.8,N
1669520335.3,286046997.7,N
1669520355.2,286046997.2,N
1669520375.9,286046999.6,N
1669520395.7,286046996.9,N
1669520415.6,286046998.8,N
1669520435.4,286047001.0,N
1669520455.2,286046999.9,N
1669520475.1,286046998.9,N
1669520476.0,286046998.9,N
1669520495.8,286046998.9,N
1669520515.6,286046997.2,N
1669520535.5,286046997.7,N
1669520555.3,286046997.4,N
1669520575.1,286046996.5,N
1669520595.9,286046996.5,N
1669520615.7,286046997.3,N
1669520635.5,286046999.6,N
1669520655.4,286046999.5,N
1669520675.2,286046997.0,N
1669520695.0,286046999.5,N
1669520695.9,286046999.5,N
1669520715.8,286046996.8,N
1669520735.6,286046996.7,N
1669520755.4,286046997.6,N
1669520775.3,286046995.8,Y
1669520795.1,286046997.4,P
1669520815.8,286046997.7,P
1669520835.7,286046999.4,N
1669520855.5,286046998.3,N
1669520875.3,286046999.0,N
1669520895.2,286046998.3,N
1669520915.0,286046998.8,N
1669520915.9,286046998.8,N
1669520935.7,286046999.4,N
1669520955.6,286046997.8,Y
1669520975.4,286046998.3,P
1669520995.2,286047000.0,N
1669521015.1,286047000.0,N
1669521016.0,286047000.0,N
1669521035.8,286046999.7,N
1669521055.7,286047002.4,Y
1669521075.5,286047004.2,P
1669521095.3,286047001.9,N
1669521115.2,286047002.6,N
1669521135.9,286047000.1,N
1669521155.7,286047003.8,N
1669521175.6,286047001.7,N
1669521195.4,286047001.8,N
1669521215.2,286047002.6,N
1669521235.1,286047001.4,N
1669521236.0,286047001.4,N
1669521255.8,286047004.2,Y
1669521275.6,286047000.2,P
1669521295.5,286047000.3,N
1669521315.3,286047000.6,N
1669521335.1,286046998.5,N
1669521355.9,286047002.7,N
1669521375.7,286047002.7,N
1669521395.5,286047002.5,N
1669521415.4,286047002.5,N
1669521435.2,286047002.2,N
1669521455.0,286047000.2,N
1669521455.9,286047000.2,N
1669521475.8,286046999.8,N
1669521495.6,286047000.6,N
1669521515.4,286047000.1,N
1669521535.3,286047000.3,N
1669521555.1,286047002.4,N
1669521575.8,286046999.7,N
1669521595.7,286047002.8,N
